• MPC Preparation (Info)

  • MPEC 2004-B05 : 2004 BB

    The following Minor Planet Electronic Circular may be linked-to from your own Web pages, but must not otherwise be redistributed electronically.

    A form allowing access to any MPEC is at the bottom of this page.


    Read MPEC 2004-B04 Read MPEC 2004-B06


    M.P.E.C. 2004-B05                                Issued 2004 Jan. 17, 12:06 UT
    
         The Minor Planet Electronic Circulars contain information on unusual
             minor planets and routine data on comets.  They are published
       on behalf of Commission 20 of the International Astronomical Union by the
              Minor Planet Center, Smithsonian Astrophysical Observatory,
                              Cambridge, MA 02138, U.S.A.
    
             Supported in part by the Steven and Michele Kirsch Foundation
                 Prepared using the Tamkin Foundation Computer Network
    
                                  MPC@CFA.HARVARD.EDU
              URL http://cfa-www.harvard.edu/iau/mpc.html  ISSN 1523-6714
    
                                        2004 BB
    
    Observations:
         K04B00B* C2004 01 16.23124 05 43 09.35 -07 56 30.9          19.4 V EB005703
         K04B00B  C2004 01 16.24029 05 43 08.05 -07 56 13.4          18.4 V EB005703
         K04B00B  C2004 01 16.24936 05 43 06.79 -07 55 53.2          19.5 V EB005703
         K04B00B  C2004 01 16.25845 05 43 05.50 -07 55 33.1          19.8 V EB005703
         K04B00B  C2004 01 16.31737 05 42 57.01 -07 53 29.1          19.0 V EB005703
         K04B00B  C2004 01 16.32664 05 42 55.66 -07 53 08.1          19.1 V EB005703
         K04B00B  C2004 01 16.33593 05 42 54.41 -07 52 48.8          20.1 V EB005703
         K04B00B  C2004 01 16.34523 05 42 53.00 -07 52 29.7          19.7 V EB005703
         K04B00B  C2004 01 16.85316 05 41 44.08 -07 34 21.9          18.0 R EB005A50
         K04B00B  C2004 01 16.85668 05 41 43.65 -07 34 13.1          17.7 R EB005A50
         K04B00B  C2004 01 16.86019 05 41 43.13 -07 34 04.4          18.2 R EB005A50
         K04B00B  C2004 01 16.87073 05 41 41.70 -07 33 41.2          17.4 R EB005A50
         K04B00B  C2004 01 16.87552 05 41 41.30 -07 33 29.1          20.4 R EB005620
         K04B00B  C2004 01 16.92061 05 41 34.93 -07 31 50.3          19.5 R EB005176
         K04B00B  C2004 01 16.92435 05 41 34.38 -07 31 42.5          19.6 R EB005176
         K04B00B  C2004 01 16.92653 05 41 34.07 -07 31 38.0          19.7 R EB005176
         K04B00B  C2004 01 16.92873 05 41 33.75 -07 31 33.4          19.2 R EB005176
         K04B00B pC2004 01 16.93383 05 41 33.06 -07 31 22.6          20.4 R EB005J95
         K04B00B pC2004 01 16.97306 05 41 27.46 -07 29 58.6          20.1 R EB005J95
         K04B00B pC2004 01 16.98191 05 41 26.19 -07 29 38.8          20.6 R EB005J95
    
    Observer details:
    176 Observatori Astronomic de Consell.  Observers A. Lopez, R. Pacheco,
        J. Forteza.  0.41-m f/4 reflector + CCD.
    620 Observatorio Astronomico de Mallorca.  Observers S. Sanchez, R. Stoss,
        J. Nomen.  0.30-m f/9 Schmidt-Cassegrain + CCD.
    703 Catalina Sky Survey.  Observers S. Larson, E. Beshore, E. Christensen,
        R. Hill, S. Kolar, D. McLean.  0.68-m f/1.8 Schmidt + CCD.
    A50 Andrushivka Astronomical Observatory.  Observers Y. Ivashchenko,
        O. Gerashchenko, V. Lokot, O. Naumov.  0.6-m reflector + CCD.
    J95 Great Shefford.  Observer P. Birtwhistle.  0.30-m f/6.3 Schmidt-Cassegrain
        + CCD.
    
    Orbital elements:
    2004 BB
    Epoch 2004 Jan. 16.0 TT = JDT 2453020.5                 MPC
    M 343.76713              (2000.0)            P               Q
    n   0.22828678     Peri.   50.93321     -0.94410144     +0.04522274
    a   2.6514424      Node   129.05814     -0.08811833     -0.98912156
    e   0.6396732      Incl.   24.86756     +0.31765961     -0.13997655
    P   4.32           H   19.2           G   0.15
    From 20 observations 2004 Jan. 16-16.
    
    Ephemeris:
    2004 BB                  a,e,i = 2.65, 0.64, 25                  q = 0.9554
    Date    TT    R. A. (2000) Decl.     Delta      r     Elong.  Phase     V
    2004 01 16    05 43.68   -08 04.4    0.443    1.344   137.7    29.5    19.4
    2004 01 26    05 20.41   -00 40.9    0.381    1.261   129.4    37.1    19.1
    2004 02 05    04 57.45   +09 56.8    0.338    1.182   118.0    47.4    19.0
    2004 02 15    04 35.57   +23 19.7    0.312    1.111   105.1    59.2    19.0
    2004 02 25    04 13.36   +38 13.0    0.304    1.049    92.6    70.5    19.2
    2004 03 06    03 45.31   +52 56.3    0.312    1.000    82.4    79.6    19.4
    2004 03 16    02 56.89   +65 46.5    0.331    0.968    75.7    84.9    19.7
    2004 03 26    01 14.3    +74 39.9    0.359    0.956    72.9    86.1    19.9
    2004 04 05    22 28.3    +76 33.8    0.388    0.964    73.3    84.0    20.0
    2004 04 15    20 31.9    +72 32.6    0.417    0.991    76.3    79.5    20.1
    2004 04 25    19 34.42   +66 53.5    0.441    1.037    81.4    73.7    20.1
    2004 05 05    18 59.97   +60 56.1    0.461    1.096    88.2    66.9    20.1
    2004 05 15    18 33.97   +54 37.0    0.477    1.166    96.5    59.5    20.1
    2004 05 25    18 11.72   +47 34.7    0.493    1.243   106.1    51.5    20.0
    2004 06 04    17 52.72   +39 36.9    0.516    1.326   116.2    43.4    20.1
    2004 06 14    17 37.46   +30 56.5    0.552    1.411   125.8    35.7    20.1
    2004 06 24    17 26.46   +22 06.6    0.607    1.498   133.1    29.7    20.3
    2004 07 04    17 19.91   +13 48.0    0.685    1.586   136.8    26.0    20.6
    2004 07 14    17 17.43   +06 29.5    0.785    1.674   136.2    24.9    20.9
    2004 07 24    17 18.54   +00 20.9    0.908    1.761   132.4    25.2    21.4
    2004 08 03    17 22.70   -04 40.6    1.050    1.847   126.9    26.1    21.8
    
    Timothy B. Spahr             (C) Copyright 2004 MPC           M.P.E.C. 2004-B05
    

    Read MPEC 2004-B04 Read MPEC 2004-B06


    MPEC number:

    Enter an MPEC number in one of the following forms:

    • 1997-B01 (the full form)
    • J97B01 (the packed version of the full form)
    • B01 (the abbreviated form)